星链-31424 (STARLINK-31424 )

导读

STARLINK-31424是美国SpaceX公司星链(Starlink)星座的一颗第二代迷你低轨通信卫星,于北京时间2024年3月16日由猎鹰九号运载火箭,从佛罗里达州肯尼迪航天中心发射入轨。该星属于G6-44批次,单星发射质量约790千克,通信容量可达165Gb/s,旨在为全球提供低延迟高速互联网服务,此次发射后星链入轨卫星总数突破6000颗。

Basic Information
目录编号:
59247
目录名称:
STARLINK-31424
国际标识:
2024-049S
轨道中心:
EARTH
卫星名称:
星链-31424
卫星全名:
星链-31424 (STARLINK-31424 )
卫星状态:
在轨 (已飞行903 天)
发射日期:
2024-03-16 UTC
国别 :
美国 (US)
星等 :
--
Orbit Information
数据来源 国际轨道数据 AOE轨道数据
星历时间 2026-09-05T13:22:46+0800
7小时前
查看轨道信息
2026-08-30T23:00:00+0800
5天前
查看轨道信息
半长轴 6861.189km 6861.197km
偏心率 0.0001431 0.0001177
轨道倾角 43.003° 43.002°
近地点辐角 272.997° 257.413°
升交点赤经 206.147° 237.771°
平近点角 87.072° 235.287°
近地点 482.07km 482.252km
远地点 484.034km 483.868km
周期 94.267分钟 94.267分钟
每日圈数 15.275792 15.275766
Detailed Information
固有亮度:
5
最大亮度:
0.3
卫星平台:
Starlink v2.0 mini
覆盖范围:
全球
运营商:
太空探索技术公司
运营商所在国:
美国
制造商(研发单位):
太空探索技术公司
制造商所在国:
美国
使用方式:
暂无
Satellite Introduction
星链(Starlink)计划是由太空探索技术公司(SpaceX)提出的一个巨型低轨卫星互联网星座项目,计划在2019年至2024年间在太空搭建由约1.2万颗卫星组成的“星链”网络,其中1584颗将部署在地球上空550千米处的近地轨道,并从2020年开始工作。该卫星仍在工作。
2D Orbit Map
3D Orbit Map
Orbit Altitude Analysis Chart
Orbit Inclination Analysis Chart
Orbit Comprehensive Analysis Chart
View Comprehensive Chart
Conjunction Data List
Event ID Objects TCA Miss Dist (km) Collision Risk Probability Collision Risk Index (CRI) Action
CDM_260906-233105-924706-742321
2026-09-06T
23:31:58+0000
0.332 km
远距离
3.263656E-4 高风险 0.85
CDM_260903-055305-718805-924722
OBJECT Y (57188)
2026-09-03T
05:53:44+0000
0.695 km
远距离
7.355214E-5 中风险 0.72
CDM_260906-215705-924706-742321
2026-09-06T
21:57:49+0000
1.267 km
极远距离
7.659102E-6 低风险 0.53
CDM_260907-010605-924706-742321
2026-09-07T
01:06:07+0000
1.800 km
极远距离
2.536251E-6 低风险 0.43
CDM_260903-204905-717505-924722
OBJECT K (57175)
2026-09-03T
20:49:00+0000
2.243 km
极远距离
1.888078E-6 低风险 0.41
CDM_260905-133705-320805-924721
2026-09-05T
13:37:34+0000
2.357 km
极远距离
1.71596E-6 低风险 0.4
CDM_260906-202305-924706-742321
2026-09-06T
20:23:39+0000
2.733 km
极远距离
1.053878E-6 低风险 0.35